| time (UTC) | temp F | wind direction | speed MPH | gust MPH | rain 1hr in | rain 24hr in | rain mn in | humidity % | barometer mb |
| 20260507113949 | 44 | 360 | 8.0 | 11.0 | 0.00 | 0.00 | 0.00 | 10 | 1003.6 |
| 20260507113635 | 44 | 340 | 7.0 | 11.0 | 0.00 | 0.00 | 0.00 | 10 | 1003.6 |
| 20260507113603 | 44 | 340 | 7.0 | 11.0 | 0.00 | 0.00 | 0.00 | 10 | 1003.6 |
| 20260507113449 | 44 | 342 | 4.0 | 12.0 | 0.00 | 0.00 | 0.00 | 10 | 1003.6 |
| 20260507112949 | 44 | 332 | 6.0 | 12.0 | 0.00 | 0.00 | 0.00 | 10 | 1003.6 |
| 20260507112703 | 44 | 343 | 5.0 | 12.0 | 0.00 | 0.00 | 0.00 | 10 | 1003.5 |
| 20260507112449 | 44 | 348 | 5.0 | 11.0 | 0.00 | 0.00 | 0.00 | 10 | 1003.5 |
| 20260507111949 | 44 | 360 | 4.0 | 11.0 | 0.00 | 0.00 | 0.00 | 10 | 1003.4 |
| 20260507111803 | 44 | 7 | 7.0 | 11.0 | 0.00 | 0.00 | 0.00 | 10 | 1003.4 |
| 20260507111635 | 44 | 2 | 6.0 | 10.0 | 0.00 | 0.00 | 0.00 | 10 | 1003.4 |
| 20260507111449 | 44 | 349 | 5.0 | 11.0 | 0.00 | 0.00 | 0.00 | 10 | 1003.5 |
| 20260507110949 | 44 | 349 | 4.0 | 11.0 | 0.00 | 0.00 | 0.00 | 10 | 1003.5 |
| 20260507110904 | 44 | 349 | 4.0 | 11.0 | 0.00 | 0.00 | 0.00 | 10 | 1003.5 |
| 20260507110449 | 43 | 340 | 4.0 | 10.0 | 0.00 | 0.00 | 0.00 | 10 | 1003.4 |
| 20260507110003 | 43 | 342 | 5.0 | 11.0 | 0.00 | 0.00 | 0.00 | 10 | 1003.4 |
| 20260507105949 | 43 | 333 | 7.0 | 11.0 | 0.00 | 0.00 | 0.00 | 10 | 1003.3 |
| 20260507105635 | 43 | 335 | 7.0 | 12.0 | 0.00 | 0.00 | 0.00 | 10 | 1003.4 |
| 20260507105449 | 43 | 349 | 4.0 | 13.0 | 0.00 | 0.00 | 0.00 | 10 | 1003.4 |
| 20260507105403 | 43 | 349 | 4.0 | 13.0 | 0.00 | 0.00 | 0.00 | 10 | 1003.4 |
| 20260507104949 | 43 | 351 | 5.0 | 13.0 | 0.00 | 0.00 | 0.00 | 10 | 1003.3 |
| 20260507104504 | 43 | 353 | 8.0 | 12.0 | 0.00 | 0.00 | 0.00 | 10 | 1003.3 |
| 20260507104449 | 43 | 346 | 5.0 | 12.0 | 0.00 | 0.00 | 0.00 | 10 | 1003.3 |
| 20260507103948 | 43 | 338 | 4.0 | 11.0 | 0.00 | 0.00 | 0.00 | 10 | 1003.2 |
| 20260507103634 | 43 | 334 | 6.0 | 11.0 | 0.00 | 0.00 | 0.00 | 10 | 1003.2 |
| 20260507103603 | 43 | 335 | 6.0 | 11.0 | 0.00 | 0.00 | 0.00 | 10 | 1003.2 |
| 20260507103449 | 43 | 335 | 6.0 | 11.0 | 0.00 | 0.00 | 0.00 | 10 | 1003.3 |
| 20260507102949 | 42 | 333 | 4.0 | 9.0 | 0.00 | 0.00 | 0.00 | 10 | 1003.2 |
| 20260507102703 | 43 | 330 | 4.0 | 9.0 | 0.00 | 0.00 | 0.00 | 10 | 1003.1 |
| 20260507102449 | 43 | 344 | 4.0 | 11.0 | 0.00 | 0.00 | 0.00 | 10 | 1003.1 |
| 20260507101949 | 43 | 351 | 3.0 | 11.0 | 0.00 | 0.00 | 0.00 | 10 | 1003.0 |
| 20260507101803 | 43 | 353 | 4.0 | 11.0 | 0.00 | 0.00 | 0.00 | 10 | 1002.9 |
| 20260507101635 | 43 | 348 | 4.0 | 11.0 | 0.00 | 0.00 | 0.00 | 10 | 1003.0 |
| 20260507101449 | 43 | 337 | 3.0 | 11.0 | 0.00 | 0.00 | 0.00 | 10 | 1002.9 |
| 20260507100949 | 43 | 343 | 7.0 | 11.0 | 0.00 | 0.00 | 0.00 | 10 | 1002.9 |
| 20260507100903 | 43 | 343 | 7.0 | 11.0 | 0.00 | 0.00 | 0.00 | 10 | 1002.9 |
| 20260507100449 | 43 | 350 | 6.0 | 12.0 | 0.00 | 0.00 | 0.00 | 10 | 1002.6 |
| 20260507100005 | 43 | 351 | 4.0 | 12.0 | 0.00 | 0.00 | 0.00 | 10 | 1002.8 |
| 20260507095949 | 43 | 353 | 6.0 | 12.0 | 0.00 | 0.00 | 0.00 | 10 | 1002.8 |
| 20260507095635 | 43 | 352 | 6.0 | 10.0 | 0.00 | 0.00 | 0.00 | 10 | 1002.8 |
| 20260507095449 | 43 | 358 | 7.0 | 10.0 | 0.00 | 0.00 | 0.00 | 10 | 1002.8 |
| 20260507095403 | 43 | 358 | 7.0 | 10.0 | 0.00 | 0.00 | 0.00 | 10 | 1002.8 |
| 20260507094949 | 43 | 357 | 3.0 | 9.0 | 0.00 | 0.00 | 0.00 | 10 | 1002.5 |
| 20260507094503 | 43 | 349 | 5.0 | 10.0 | 0.00 | 0.00 | 0.00 | 10 | 1002.4 |
| 20260507094449 | 43 | 343 | 4.0 | 10.0 | 0.00 | 0.00 | 0.00 | 10 | 1002.5 |
| 20260507093948 | 42 | 2 | 4.0 | 12.0 | 0.00 | 0.00 | 0.00 | 10 | 1002.4 |
| 20260507093634 | 43 | 1 | 4.0 | 12.0 | 0.00 | 0.00 | 0.00 | 10 | 1002.5 |
| 20260507093603 | 43 | 3 | 4.0 | 12.0 | 0.00 | 0.00 | 0.00 | 10 | 1002.5 |
| 20260507093448 | 42 | 359 | 4.0 | 13.0 | 0.00 | 0.00 | 0.00 | 10 | 1002.6 |
| 20260507092949 | 43 | 350 | 3.0 | 13.0 | 0.00 | 0.00 | 0.00 | 10 | 1002.6 |
| 20260507092703 | 42 | 341 | 6.0 | 13.0 | 0.00 | 0.00 | 0.00 | 10 | 1002.5 |
| 20260507092448 | 42 | 348 | 8.0 | 13.0 | 0.00 | 0.00 | 0.00 | 10 | 1002.4 |
| 20260507091948 | 42 | 1 | 5.0 | 13.0 | 0.00 | 0.00 | 0.00 | 10 | 1002.4 |
| 20260507091803 | 42 | 5 | 6.0 | 13.0 | 0.00 | 0.00 | 0.00 | 10 | 1002.3 |
| 20260507091634 | 42 | 5 | 4.0 | 13.0 | 0.00 | 0.00 | 0.00 | 10 | 1002.2 |
| 20260507091448 | 42 | 354 | 4.0 | 13.0 | 0.00 | 0.00 | 0.00 | 10 | 1002.2 |
| 20260507090948 | 42 | 325 | 4.0 | 11.0 | 0.00 | 0.00 | 0.00 | 10 | 1002.0 |
| 20260507090903 | 42 | 325 | 4.0 | 11.0 | 0.00 | 0.00 | 0.00 | 10 | 1002.0 |
| 20260507090448 | 41 | 344 | 6.0 | 11.0 | 0.00 | 0.00 | 0.00 | 10 | 1002.1 |
| 20260507090003 | 41 | 338 | 8.0 | 11.0 | 0.00 | 0.00 | 0.00 | 10 | 1002.1 |
| 20260507085948 | 41 | 341 | 6.0 | 12.0 | 0.00 | 0.00 | 0.00 | 10 | 1001.9 |
| 20260507085634 | 41 | 331 | 4.0 | 12.0 | 0.00 | 0.00 | 0.00 | 10 | 1001.9 |
| 20260507085448 | 41 | 314 | 7.0 | 12.0 | 0.00 | 0.00 | 0.00 | 10 | 1001.8 |
| 20260507085403 | 41 | 314 | 7.0 | 12.0 | 0.00 | 0.00 | 0.00 | 10 | 1001.8 |
| 20260507084948 | 40 | 324 | 9.0 | 11.0 | 0.00 | 0.00 | 0.00 | 10 | 1001.7 |
| 20260507084503 | 40 | 314 | 5.0 | 11.0 | 0.00 | 0.00 | 0.00 | 10 | 1001.6 |
| 20260507084448 | 40 | 320 | 4.0 | 11.0 | 0.00 | 0.00 | 0.00 | 10 | 1001.6 |
| 20260507083948 | 40 | 322 | 4.0 | 11.0 | 0.00 | 0.00 | 0.00 | 10 | 1001.5 |
| 20260507083634 | 40 | 339 | 4.0 | 11.0 | 0.00 | 0.00 | 0.00 | 10 | 1001.4 |
| 20260507083603 | 40 | 340 | 4.0 | 11.0 | 0.00 | 0.00 | 0.00 | 10 | 1001.4 |
| 20260507083448 | 39 | 342 | 5.0 | 11.0 | 0.00 | 0.00 | 0.00 | 10 | 1001.5 |
| 20260507082948 | 39 | 348 | 6.0 | 13.0 | 0.00 | 0.00 | 0.00 | 10 | 1001.5 |
| 20260507082703 | 39 | 355 | 5.0 | 13.0 | 0.00 | 0.00 | 0.00 | 10 | 1001.5 |
| 20260507082348 | 39 | 3 | 5.0 | 13.0 | 0.00 | 0.00 | 0.00 | 10 | 1001.6 |
| 20260507081848 | 39 | 15 | 4.0 | 11.0 | 0.00 | 0.00 | 0.00 | 10 | 1001.6 |
| 20260507081803 | 39 | 15 | 4.0 | 11.0 | 0.00 | 0.00 | 0.00 | 10 | 1001.6 |
| 20260507081634 | 39 | 6 | 7.0 | 11.0 | 0.00 | 0.00 | 0.00 | 10 | 1001.5 |
| 20260507081348 | 39 | 360 | 4.0 | 11.0 | 0.00 | 0.00 | 0.00 | 10 | 1001.5 |
| 20260507080903 | 39 | 355 | 5.0 | 8.0 | 0.00 | 0.00 | 0.00 | 10 | 1001.7 |
| 20260507080847 | 39 | 351 | 5.0 | 8.0 | 0.00 | 0.00 | 0.00 | 10 | 1001.7 |
| 20260507080347 | 38 | 1 | 4.0 | 10.0 | 0.00 | 0.00 | 0.00 | 10 | 1001.7 |
| 20260507080003 | 38 | 353 | 4.0 | 11.0 | 0.00 | 0.00 | 0.00 | 10 | 1001.8 |
| 20260507075847 | 38 | 347 | 4.0 | 11.0 | 0.00 | 0.00 | 0.00 | 10 | 1001.8 |
| 20260507075635 | 38 | 341 | 7.0 | 11.0 | 0.00 | 0.00 | 0.00 | 10 | 1001.9 |
| 20260507075403 | 38 | 330 | 6.0 | 11.0 | 0.00 | 0.00 | 0.00 | 10 | 1002.0 |
| 20260507075347 | 38 | 326 | 7.0 | 11.0 | 0.00 | 0.00 | 0.00 | 10 | 1002.0 |
| 20260507074847 | 38 | 330 | 8.0 | 11.0 | 0.00 | 0.00 | 0.00 | 10 | 1002.1 |
| 20260507074503 | 38 | 344 | 5.0 | 11.0 | 0.00 | 0.00 | 0.00 | 10 | 1002.2 |
| 20260507074347 | 37 | 337 | 4.0 | 14.0 | 0.00 | 0.00 | 0.00 | 10 | 1002.2 |
| 20260507073847 | 37 | 324 | 5.0 | 15.0 | 0.00 | 0.00 | 0.00 | 10 | 1002.3 |
| 20260507073635 | 37 | 329 | 5.0 | 15.0 | 0.00 | 0.00 | 0.00 | 10 | 1002.4 |
| 20260507073603 | 37 | 329 | 5.0 | 15.0 | 0.00 | 0.00 | 0.00 | 10 | 1002.4 |
| 20260507073347 | 37 | 347 | 5.0 | 15.0 | 0.00 | 0.00 | 0.00 | 10 | 1002.3 |
| 20260507072847 | 37 | 347 | 8.0 | 15.0 | 0.00 | 0.00 | 0.00 | 10 | 1002.3 |
| 20260507072703 | 37 | 343 | 5.0 | 12.0 | 0.00 | 0.00 | 0.00 | 10 | 1002.4 |
| 20260507072347 | 36 | 331 | 4.0 | 12.0 | 0.00 | 0.00 | 0.00 | 10 | 1002.5 |
| 20260507071847 | 36 | 342 | 8.0 | 12.0 | 0.00 | 0.00 | 0.00 | 10 | 1002.6 |
| 20260507071803 | 36 | 342 | 8.0 | 12.0 | 0.00 | 0.00 | 0.00 | 10 | 1002.6 |
| 20260507071635 | 37 | 350 | 6.0 | 11.0 | 0.00 | 0.00 | 0.00 | 10 | 1002.7 |
| 20260507071347 | 37 | 358 | 4.0 | 11.0 | 0.00 | 0.00 | 0.00 | 10 | 1002.8 |
| 20260507070903 | 36 | 355 | 4.0 | 11.0 | 0.00 | 0.00 | 0.00 | 10 | 1002.9 |
| 20260507070847 | 36 | 359 | 4.0 | 11.0 | 0.00 | 0.00 | 0.00 | 10 | 1002.6 |
| 20260507070347 | 36 | 2 | 6.0 | 11.0 | 0.00 | 0.00 | 0.00 | 10 | 1002.7 |
| 20260507070006 | 36 | 338 | 6.0 | 11.0 | 0.00 | 0.00 | 0.00 | 10 | 1002.8 |
| 20260507065847 | 35 | 326 | 2.0 | 8.0 | 0.00 | 0.00 | 0.00 | 10 | 1002.8 |
| 20260507065635 | 35 | 319 | 4.0 | 8.0 | 0.00 | 0.00 | 0.00 | 10 | 1002.7 |
| 20260507065403 | 35 | 324 | 2.0 | 8.0 | 0.00 | 0.00 | 0.00 | 10 | 1002.7 |
| 20260507065347 | 35 | 322 | 4.0 | 8.0 | 0.00 | 0.00 | 0.00 | 10 | 1002.7 |
| 20260507064735 | 35 | 330 | 4.0 | 8.0 | 0.00 | 0.00 | 0.00 | 10 | 1002.8 |
| 20260507064503 | 34 | 333 | 3.0 | 8.0 | 0.00 | 0.00 | 0.00 | 10 | 1002.7 |
| 20260507064235 | 34 | 336 | 2.0 | 8.0 | 0.00 | 0.00 | 0.00 | 10 | 1002.7 |
| 20260507063735 | 34 | 334 | 2.0 | 7.0 | 0.00 | 0.00 | 0.00 | 10 | 1002.6 |
| 20260507063635 | 34 | 337 | 2.0 | 7.0 | 0.00 | 0.00 | 0.00 | 10 | 1002.6 |
| 20260507063603 | 34 | 337 | 2.0 | 7.0 | 0.00 | 0.00 | 0.00 | 10 | 1002.6 |
| 20260507063235 | 34 | 340 | 2.0 | 8.0 | 0.00 | 0.00 | 0.00 | 10 | 1002.7 |
| 20260507062734 | 34 | 335 | 2.0 | 9.0 | 0.00 | 0.00 | 0.00 | 10 | 1002.6 |
| 20260507062704 | 34 | 335 | 2.0 | 9.0 | 0.00 | 0.00 | 0.00 | 10 | 1002.6 |
| 20260507062234 | 33 | 318 | 2.0 | 9.0 | 0.00 | 0.00 | 0.00 | 10 | 1002.6 |
| 20260507061803 | 33 | 341 | 3.0 | 9.0 | 0.00 | 0.00 | 0.00 | 10 | 1002.6 |
| 20260507061734 | 33 | 349 | 4.0 | 9.0 | 0.00 | 0.00 | 0.00 | 10 | 1002.7 |
| 20260507061634 | 33 | 355 | 3.0 | 8.0 | 0.00 | 0.00 | 0.00 | 11 | 1002.6 |
| 20260507061234 | 33 | 12 | 5.0 | 8.0 | 0.00 | 0.00 | 0.00 | 13 | 1002.8 |
| 20260507060903 | 33 | 15 | 4.0 | 8.0 | 0.00 | 0.00 | 0.00 | 16 | 1002.6 |
| 20260507060734 | 32 | 354 | 2.0 | 5.0 | 0.00 | 0.00 | 0.00 | 24 | 1002.8 |
| 20260507060234 | 32 | 357 | 2.0 | 5.0 | 0.00 | 0.00 | 0.00 | 24 | 1002.5 |
| 20260507060003 | 32 | 3 | 2.0 | 5.0 | 0.00 | 0.00 | 0.00 | 24 | 1002.5 |
| 20260507055734 | 32 | 22 | 3.0 | 5.0 | 0.00 | 0.00 | 0.00 | 26 | 1002.6 |
| 20260507055634 | 32 | 33 | 3.0 | 5.0 | 0.00 | 0.00 | 0.00 | 27 | 1002.6 |
| 20260507055403 | 32 | 32 | 2.0 | 5.0 | 0.00 | 0.00 | 0.00 | 29 | 1002.5 |
| 20260507055234 | 32 | 29 | 2.0 | 4.0 | 0.00 | 0.00 | 0.00 | 30 | 1002.5 |
| 20260507054734 | 31 | 351 | 2.0 | 4.0 | 0.00 | 0.00 | 0.00 | 31 | 1002.5 |
| 20260507054503 | 31 | 277 | 2.0 | 4.0 | 0.00 | 0.00 | 0.00 | 33 | 1002.4 |
| 20260507054234 | 31 | 216 | 0.0 | 4.0 | 0.00 | 0.00 | 0.00 | 34 | 1002.5 |
| 20260507053734 | 31 | 211 | 2.0 | 4.0 | 0.00 | 0.00 | 0.00 | 37 | 1002.4 |
| 20260507053634 | 31 | 211 | 1.0 | 2.0 | 0.00 | 0.00 | 0.00 | 37 | 1002.4 |
| 20260507053604 | 31 | 211 | 1.0 | 2.0 | 0.00 | 0.00 | 0.00 | 37 | 1002.4 |
| 20260507053234 | 31 | 284 | 0.0 | 4.0 | 0.00 | 0.00 | 0.00 | 39 | 1002.5 |
| 20260507052734 | 31 | 286 | 2.0 | 4.0 | 0.00 | 0.00 | 0.00 | 40 | 1002.4 |
| 20260507052703 | 31 | 286 | 2.0 | 4.0 | 0.00 | 0.00 | 0.00 | 40 | 1002.4 |
| 20260507052234 | 30 | 271 | 2.0 | 4.0 | 0.00 | 0.00 | 0.00 | 41 | 1002.4 |
| 20260507051803 | 30 | 292 | 1.0 | 3.0 | 0.00 | 0.00 | 0.00 | 41 | 1002.4 |
| 20260507051734 | 29 | 299 | 1.0 | 3.0 | 0.00 | 0.00 | 0.00 | 41 | 1002.3 |
| 20260507051634 | 29 | 303 | 0.0 | 3.0 | 0.00 | 0.00 | 0.00 | 41 | 1002.3 |
| 20260507051234 | 29 | 320 | 1.0 | 3.0 | 0.00 | 0.00 | 0.00 | 41 | 1002.3 |
| 20260507050903 | 29 | 315 | 1.0 | 2.0 | 0.00 | 0.00 | 0.00 | 40 | 1002.3 |
| 20260507050734 | 28 | 180 | 0.0 | 1.0 | 0.00 | 0.00 | 0.00 | 39 | 1002.4 |
| 20260507050234 | 28 | 180 | 0.0 | 1.0 | 0.00 | 0.00 | 0.00 | 39 | 1002.4 |
| 20260507050005 | 28 | 180 | 0.0 | 1.0 | 0.00 | 0.00 | 0.00 | 39 | 1002.4 |
| 20260507045734 | 28 | 0 | 0.0 | 0.0 | 0.00 | 0.00 | 0.00 | 39 | 1002.4 |
| 20260507045634 | 28 | 0 | 0.0 | 0.0 | 0.00 | 0.00 | 0.00 | 39 | 1002.4 |
| 20260507045403 | 27 | 0 | 0.0 | 0.0 | 0.00 | 0.00 | 0.00 | 39 | 1002.3 |
| 20260507045235 | 27 | 0 | 0.0 | 0.0 | 0.00 | 0.00 | 0.00 | 39 | 1002.4 |
| 20260507044734 | 27 | 0 | 0.0 | 0.0 | 0.00 | 0.00 | 0.00 | 39 | 1002.3 |
| 20260507044503 | 27 | 0 | 0.0 | 0.0 | 0.00 | 0.00 | 0.00 | 39 | 1002.3 |
| 20260507044234 | 27 | 0 | 0.0 | 0.0 | 0.00 | 0.00 | 0.00 | 39 | 1002.4 |
| 20260507043734 | 26 | 0 | 0.0 | 0.0 | 0.00 | 0.00 | 0.00 | 38 | 1002.3 |
| 20260507043603 | 26 | 0 | 0.0 | 0.0 | 0.00 | 0.00 | 0.00 | 38 | 1002.3 |
| 20260507043217 | 26 | 0 | 0.0 | 0.0 | 0.00 | 0.00 | 0.00 | 38 | 1002.3 |
| 20260507034504 | 24 | 0 | 0.0 | 0.0 | 0.00 | 0.00 | 0.00 | 36 | 1002.2 |
| 20260507034438 | 24 | 0 | 0.0 | 0.0 | 0.00 | 0.00 | 0.00 | 37 | 1002.2 |
| 20260507033938 | 24 | 0 | 0.0 | 0.0 | 0.00 | 0.00 | 0.00 | 37 | 1002.2 |
| 20260507033603 | 23 | 0 | 0.0 | 0.0 | 0.00 | 0.00 | 0.00 | 36 | 1002.2 |
| 20260507033438 | 23 | 0 | 0.0 | 0.0 | 0.00 | 0.00 | 0.00 | 36 | 1002.2 |
| 20260507032938 | 23 | 0 | 0.0 | 0.0 | 0.00 | 0.00 | 0.00 | 36 | 1002.2 |
| 20260507032720 | 23 | 0 | 0.0 | 0.0 | 0.00 | 0.00 | 0.00 | 35 | 1002.1 |
| 20260507032703 | 23 | 0 | 0.0 | 0.0 | 0.00 | 0.00 | 0.00 | 35 | 1002.1 |
| 20260507032438 | 23 | 0 | 0.0 | 0.0 | 0.00 | 0.00 | 0.00 | 35 | 1002.1 |
| 20260507031938 | 22 | 0 | 0.0 | 0.0 | 0.00 | 0.00 | 0.00 | 35 | 1002.1 |
| 20260507031803 | 22 | 0 | 0.0 | 0.0 | 0.00 | 0.00 | 0.00 | 35 | 1002.0 |
| 20260507031438 | 22 | 0 | 0.0 | 0.0 | 0.00 | 0.00 | 0.00 | 35 | 1002.1 |
| 20260507030939 | 22 | 0 | 0.0 | 0.0 | 0.00 | 0.00 | 0.00 | 35 | 1002.1 |
| 20260507030903 | 22 | 0 | 0.0 | 0.0 | 0.00 | 0.00 | 0.00 | 35 | 1002.0 |
| 20260507030721 | 22 | 0 | 0.0 | 0.0 | 0.00 | 0.00 | 0.00 | 35 | 1002.0 |
| 20260507030439 | 22 | 0 | 0.0 | 0.0 | 0.00 | 0.00 | 0.00 | 35 | 1002.1 |
| 20260507030003 | 22 | 0 | 0.0 | 0.0 | 0.00 | 0.00 | 0.00 | 35 | 1002.0 |
| 20260507025939 | 22 | 0 | 0.0 | 0.0 | 0.00 | 0.00 | 0.00 | 35 | 1002.0 |
| 20260507025439 | 22 | 0 | 0.0 | 0.0 | 0.00 | 0.00 | 0.00 | 35 | 1001.9 |
| 20260507025403 | 22 | 0 | 0.0 | 0.0 | 0.00 | 0.00 | 0.00 | 35 | 1001.9 |
| 20260507024939 | 22 | 0 | 0.0 | 0.0 | 0.00 | 0.00 | 0.00 | 35 | 1001.9 |
| 20260507024721 | 22 | 0 | 0.0 | 0.0 | 0.00 | 0.00 | 0.00 | 35 | 1001.8 |
| 20260507024503 | 22 | 0 | 0.0 | 0.0 | 0.00 | 0.00 | 0.00 | 35 | 1001.9 |
| 20260507024439 | 22 | 0 | 0.0 | 0.0 | 0.00 | 0.00 | 0.00 | 35 | 1001.8 |
| 20260507023939 | 22 | 0 | 0.0 | 0.0 | 0.00 | 0.00 | 0.00 | 35 | 1001.8 |
| 20260507023603 | 22 | 0 | 0.0 | 0.0 | 0.00 | 0.00 | 0.00 | 35 | 1001.8 |
| 20260507023439 | 22 | 0 | 0.0 | 0.0 | 0.00 | 0.00 | 0.00 | 34 | 1001.8 |
| 20260507022939 | 22 | 0 | 0.0 | 0.0 | 0.00 | 0.00 | 0.00 | 34 | 1001.8 |
| 20260507022721 | 22 | 0 | 0.0 | 0.0 | 0.00 | 0.00 | 0.00 | 34 | 1001.7 |
| 20260507022703 | 22 | 0 | 0.0 | 0.0 | 0.00 | 0.00 | 0.00 | 34 | 1001.7 |
| 20260507022439 | 22 | 0 | 0.0 | 0.0 | 0.00 | 0.00 | 0.00 | 34 | 1001.6 |
| 20260507021939 | 22 | 0 | 0.0 | 0.0 | 0.00 | 0.00 | 0.00 | 34 | 1001.8 |
| 20260507021803 | 22 | 0 | 0.0 | 0.0 | 0.00 | 0.00 | 0.00 | 34 | 1001.8 |
| 20260507021439 | 22 | 0 | 0.0 | 0.0 | 0.00 | 0.00 | 0.00 | 34 | 1001.8 |
| 20260507020939 | 23 | 0 | 0.0 | 0.0 | 0.00 | 0.00 | 0.00 | 34 | 1001.7 |
| 20260507020904 | 23 | 0 | 0.0 | 0.0 | 0.00 | 0.00 | 0.00 | 34 | 1001.7 |
| 20260507020721 | 23 | 0 | 0.0 | 0.0 | 0.00 | 0.00 | 0.00 | 34 | 1001.6 |
| 20260507020439 | 23 | 0 | 0.0 | 0.0 | 0.00 | 0.00 | 0.00 | 34 | 1001.8 |
| 20260507020003 | 22 | 0 | 0.0 | 0.0 | 0.00 | 0.00 | 0.00 | 34 | 1001.6 |
| 20260507015939 | 22 | 0 | 0.0 | 0.0 | 0.00 | 0.00 | 0.00 | 34 | 1001.7 |
| 20260507015439 | 22 | 0 | 0.0 | 0.0 | 0.00 | 0.00 | 0.00 | 34 | 1001.6 |
| 20260507015403 | 22 | 0 | 0.0 | 0.0 | 0.00 | 0.00 | 0.00 | 34 | 1001.6 |
| 20260507014939 | 22 | 0 | 0.0 | 0.0 | 0.00 | 0.00 | 0.00 | 33 | 1001.6 |
| 20260507014721 | 22 | 0 | 0.0 | 0.0 | 0.00 | 0.00 | 0.00 | 34 | 1001.7 |
| 20260507014503 | 22 | 0 | 0.0 | 0.0 | 0.00 | 0.00 | 0.00 | 34 | 1001.7 |
| 20260507014439 | 22 | 0 | 0.0 | 0.0 | 0.00 | 0.00 | 0.00 | 33 | 1001.7 |
| 20260507013939 | 23 | 0 | 0.0 | 0.0 | 0.00 | 0.00 | 0.00 | 33 | 1001.6 |
| 20260507013603 | 23 | 0 | 0.0 | 0.0 | 0.00 | 0.00 | 0.00 | 34 | 1001.7 |
| 20260507013438 | 23 | 0 | 0.0 | 0.0 | 0.00 | 0.00 | 0.00 | 34 | 1001.5 |
| 20260507012938 | 23 | 0 | 0.0 | 0.0 | 0.00 | 0.00 | 0.00 | 34 | 1001.6 |
| 20260507012720 | 23 | 0 | 0.0 | 0.0 | 0.00 | 0.00 | 0.00 | 34 | 1001.6 |
| 20260507012704 | 23 | 0 | 0.0 | 0.0 | 0.00 | 0.00 | 0.00 | 34 | 1001.6 |
| 20260507012438 | 24 | 0 | 0.0 | 0.0 | 0.00 | 0.00 | 0.00 | 34 | 1001.6 |
| 20260507011938 | 24 | 0 | 0.0 | 0.0 | 0.00 | 0.00 | 0.00 | 34 | 1001.5 |
| 20260507011803 | 24 | 0 | 0.0 | 0.0 | 0.00 | 0.00 | 0.00 | 34 | 1001.5 |
| 20260507011438 | 24 | 0 | 0.0 | 0.0 | 0.00 | 0.00 | 0.00 | 34 | 1001.6 |
| 20260507010938 | 24 | 0 | 0.0 | 0.0 | 0.00 | 0.00 | 0.00 | 34 | 1001.4 |
| 20260507010903 | 24 | 0 | 0.0 | 0.0 | 0.00 | 0.00 | 0.00 | 34 | 1001.4 |
| 20260507010720 | 24 | 0 | 0.0 | 0.0 | 0.00 | 0.00 | 0.00 | 33 | 1001.4 |
| 20260507010438 | 24 | 0 | 0.0 | 0.0 | 0.00 | 0.00 | 0.00 | 33 | 1001.5 |
| 20260507010003 | 24 | 0 | 0.0 | 0.0 | 0.00 | 0.00 | 0.00 | 33 | 1001.4 |
| 20260507005938 | 24 | 0 | 0.0 | 0.0 | 0.00 | 0.00 | 0.00 | 33 | 1001.4 |
| 20260507005438 | 24 | 180 | 0.0 | 1.0 | 0.00 | 0.00 | 0.00 | 33 | 1001.4 |
| 20260507005403 | 24 | 180 | 0.0 | 1.0 | 0.00 | 0.00 | 0.00 | 33 | 1001.4 |
| 20260507004938 | 24 | 180 | 0.0 | 1.0 | 0.00 | 0.00 | 0.00 | 33 | 1001.3 |
| 20260507004720 | 24 | 180 | 0.0 | 1.0 | 0.00 | 0.00 | 0.00 | 33 | 1001.4 |
| 20260507004503 | 24 | 180 | 0.0 | 1.0 | 0.00 | 0.00 | 0.00 | 33 | 1001.4 |
| 20260507004438 | 24 | 180 | 0.0 | 1.0 | 0.00 | 0.00 | 0.00 | 33 | 1001.4 |
| 20260507003938 | 24 | 0 | 0.0 | 0.0 | 0.00 | 0.00 | 0.00 | 33 | 1001.4 |
| 20260507003603 | 24 | 0 | 0.0 | 0.0 | 0.00 | 0.00 | 0.00 | 33 | 1001.3 |
| 20260507003438 | 24 | 0 | 0.0 | 0.0 | 0.00 | 0.00 | 0.00 | 33 | 1001.3 |
| 20260507002938 | 24 | 0 | 0.0 | 0.0 | 0.00 | 0.00 | 0.00 | 33 | 1001.4 |
| 20260507002720 | 24 | 0 | 0.0 | 0.0 | 0.00 | 0.00 | 0.00 | 33 | 1001.2 |
| 20260507002703 | 24 | 0 | 0.0 | 0.0 | 0.00 | 0.00 | 0.00 | 33 | 1001.2 |
| 20260507002438 | 24 | 0 | 0.0 | 0.0 | 0.00 | 0.00 | 0.00 | 33 | 1001.2 |
| 20260507001938 | 24 | 0 | 0.0 | 0.0 | 0.00 | 0.00 | 0.00 | 33 | 1001.2 |
| 20260507001803 | 24 | 0 | 0.0 | 0.0 | 0.00 | 0.00 | 0.00 | 33 | 1001.2 |
| 20260507001438 | 24 | 0 | 0.0 | 0.0 | 0.00 | 0.00 | 0.00 | 33 | 1001.1 |
| 20260507000938 | 24 | 0 | 0.0 | 0.0 | 0.00 | 0.00 | 0.00 | 32 | 1001.2 |
| 20260507000903 | 24 | 0 | 0.0 | 0.0 | 0.00 | 0.00 | 0.00 | 32 | 1001.2 |
| 20260507000720 | 24 | 0 | 0.0 | 0.0 | 0.00 | 0.00 | 0.00 | 32 | 1001.2 |
| 20260507000438 | 24 | 0 | 0.0 | 0.0 | 0.00 | 0.00 | 0.00 | 32 | 1001.1 |
| 20260507000003 | 24 | 0 | 0.0 | 0.0 | 0.00 | 0.00 | 0.00 | 32 | 1001.2 |
| 20260506235939 | 24 | 0 | 0.0 | 0.0 | 0.00 | 0.00 | 0.00 | 32 | 1001.1 |
| 20260506235438 | 25 | 270 | 0.0 | 1.0 | 0.00 | 0.00 | 0.00 | 32 | 1001.1 |
| 20260506235403 | 25 | 270 | 0.0 | 1.0 | 0.00 | 0.00 | 0.00 | 32 | 1001.1 |
| 20260506234938 | 25 | 270 | 0.0 | 1.0 | 0.00 | 0.00 | 0.00 | 32 | 1001.1 |
| 20260506234720 | 25 | 270 | 0.0 | 1.0 | 0.00 | 0.00 | 0.00 | 32 | 1001.1 |
| 20260506234504 | 25 | 270 | 0.0 | 1.0 | 0.00 | 0.00 | 0.00 | 32 | 1001.1 |
| 20260506234438 | 25 | 0 | 0.0 | 0.0 | 0.00 | 0.00 | 0.00 | 32 | 1001.1 |
| 20260506233938 | 25 | 0 | 0.0 | 0.0 | 0.00 | 0.00 | 0.00 | 32 | 1001.0 |
| 20260506233603 | 25 | 0 | 0.0 | 0.0 | 0.00 | 0.00 | 0.00 | 32 | 1001.0 |
| 20260506233438 | 25 | 0 | 0.0 | 0.0 | 0.00 | 0.00 | 0.00 | 32 | 1000.9 |
| 20260506232938 | 25 | 0 | 0.0 | 0.0 | 0.00 | 0.00 | 0.00 | 32 | 1001.0 |
| 20260506232720 | 25 | 0 | 0.0 | 0.0 | 0.00 | 0.00 | 0.00 | 32 | 1001.0 |
| 20260506232703 | 25 | 0 | 0.0 | 0.0 | 0.00 | 0.00 | 0.00 | 32 | 1001.0 |
| 20260506232438 | 25 | 0 | 0.0 | 0.0 | 0.00 | 0.00 | 0.00 | 31 | 1000.9 |
| 20260506231938 | 25 | 0 | 0.0 | 0.0 | 0.00 | 0.00 | 0.00 | 32 | 1000.9 |
| 20260506231803 | 25 | 0 | 0.0 | 0.0 | 0.00 | 0.00 | 0.00 | 32 | 1000.8 |
| 20260506231438 | 26 | 0 | 0.0 | 0.0 | 0.00 | 0.00 | 0.00 | 31 | 1000.7 |
| 20260506230938 | 25 | 0 | 0.0 | 0.0 | 0.00 | 0.00 | 0.00 | 31 | 1000.9 |
| 20260506230904 | 25 | 0 | 0.0 | 0.0 | 0.00 | 0.00 | 0.00 | 31 | 1000.9 |
| 20260506230720 | 26 | 0 | 0.0 | 0.0 | 0.00 | 0.00 | 0.00 | 31 | 1000.9 |
| 20260506230438 | 26 | 0 | 0.0 | 0.0 | 0.00 | 0.00 | 0.00 | 31 | 1000.8 |
| 20260506230003 | 26 | 0 | 0.0 | 0.0 | 0.00 | 0.00 | 0.00 | 31 | 1000.8 |
| 20260506225938 | 26 | 0 | 0.0 | 0.0 | 0.00 | 0.00 | 0.00 | 31 | 1000.8 |
| 20260506225438 | 26 | 0 | 0.0 | 0.0 | 0.00 | 0.00 | 0.00 | 30 | 1000.9 |
| 20260506225403 | 26 | 0 | 0.0 | 0.0 | 0.00 | 0.00 | 0.00 | 30 | 1000.9 |
| 20260506224938 | 26 | 0 | 0.0 | 0.0 | 0.00 | 0.00 | 0.00 | 30 | 1000.6 |
| 20260506224720 | 26 | 0 | 0.0 | 0.0 | 0.00 | 0.00 | 0.00 | 30 | 1000.8 |
| 20260506224503 | 26 | 0 | 0.0 | 0.0 | 0.00 | 0.00 | 0.00 | 30 | 1000.7 |
| 20260506224438 | 26 | 0 | 0.0 | 0.0 | 0.00 | 0.00 | 0.00 | 30 | 1000.7 |
| 20260506223938 | 26 | 270 | 0.0 | 2.0 | 0.00 | 0.00 | 0.00 | 30 | 1000.7 |
| 20260506223603 | 26 | 270 | 0.0 | 2.0 | 0.00 | 0.00 | 0.00 | 30 | 1000.6 |
| 20260506223438 | 26 | 270 | 0.0 | 2.0 | 0.00 | 0.00 | 0.00 | 30 | 1000.6 |
| 20260506222938 | 26 | 270 | 1.0 | 2.0 | 0.00 | 0.00 | 0.00 | 29 | 1000.7 |
| 20260506222722 | 26 | 0 | 0.0 | 0.0 | 0.00 | 0.00 | 0.00 | 28 | 1000.7 |
| 20260506222703 | 26 | 0 | 0.0 | 0.0 | 0.00 | 0.00 | 0.00 | 28 | 1000.7 |
| 20260506222438 | 26 | 0 | 0.0 | 0.0 | 0.00 | 0.00 | 0.00 | 28 | 1000.7 |
| 20260506221939 | 26 | 0 | 0.0 | 0.0 | 0.00 | 0.00 | 0.00 | 28 | 1000.6 |
| 20260506221803 | 26 | 270 | 0.0 | 1.0 | 0.00 | 0.00 | 0.00 | 28 | 1000.6 |
| 20260506221439 | 27 | 270 | 0.0 | 1.0 | 0.00 | 0.00 | 0.00 | 28 | 1000.5 |
| 20260506220939 | 27 | 270 | 0.0 | 1.0 | 0.00 | 0.00 | 0.00 | 28 | 1000.6 |
| 20260506220903 | 27 | 270 | 0.0 | 1.0 | 0.00 | 0.00 | 0.00 | 28 | 1000.6 |
| 20260506220721 | 27 | 0 | 0.0 | 0.0 | 0.00 | 0.00 | 0.00 | 27 | 1000.5 |
| 20260506220439 | 27 | 0 | 0.0 | 0.0 | 0.00 | 0.00 | 0.00 | 27 | 1000.4 |
| 20260506220003 | 27 | 0 | 0.0 | 0.0 | 0.00 | 0.00 | 0.00 | 27 | 1000.5 |
| 20260506215939 | 27 | 270 | 0.0 | 1.0 | 0.00 | 0.00 | 0.00 | 27 | 1000.4 |
| 20260506215439 | 27 | 270 | 0.0 | 2.0 | 0.00 | 0.00 | 0.00 | 26 | 1000.3 |
| 20260506215403 | 27 | 270 | 0.0 | 2.0 | 0.00 | 0.00 | 0.00 | 26 | 1000.3 |
| 20260506214939 | 27 | 270 | 0.0 | 2.0 | 0.00 | 0.00 | 0.00 | 25 | 1000.4 |
| 20260506214721 | 27 | 270 | 0.0 | 2.0 | 0.00 | 0.00 | 0.00 | 25 | 1000.4 |
| 20260506214503 | 27 | 270 | 0.0 | 2.0 | 0.00 | 0.00 | 0.00 | 25 | 1000.4 |
| 20260506214439 | 27 | 270 | 0.0 | 2.0 | 0.00 | 0.00 | 0.00 | 25 | 1000.4 |
| 20260506213939 | 27 | 270 | 0.0 | 2.0 | 0.00 | 0.00 | 0.00 | 24 | 1000.4 |
| 20260506213603 | 27 | 270 | 0.0 | 2.0 | 0.00 | 0.00 | 0.00 | 24 | 1000.3 |
| 20260506213439 | 27 | 270 | 0.0 | 2.0 | 0.00 | 0.00 | 0.00 | 24 | 1000.2 |
| 20260506212939 | 27 | 270 | 2.0 | 2.0 | 0.00 | 0.00 | 0.00 | 22 | 1000.2 |
| 20260506212721 | 27 | 270 | 1.0 | 2.0 | 0.00 | 0.00 | 0.00 | 21 | 1000.3 |
| 20260506212703 | 27 | 270 | 1.0 | 2.0 | 0.00 | 0.00 | 0.00 | 21 | 1000.3 |
| 20260506212439 | 27 | 0 | 0.0 | 0.0 | 0.00 | 0.00 | 0.00 | 21 | 1000.2 |
| 20260506211939 | 27 | 270 | 0.0 | 2.0 | 0.00 | 0.00 | 0.00 | 20 | 1000.2 |
| 20260506211803 | 27 | 270 | 0.0 | 2.0 | 0.00 | 0.00 | 0.00 | 20 | 1000.1 |
| 20260506211439 | 27 | 270 | 0.0 | 2.0 | 0.00 | 0.00 | 0.00 | 20 | 1000.1 |
| 20260506210939 | 27 | 0 | 0.0 | 0.0 | 0.00 | 0.00 | 0.00 | 18 | 1000.1 |
| 20260506210903 | 27 | 0 | 0.0 | 0.0 | 0.00 | 0.00 | 0.00 | 18 | 1000.1 |
| 20260506210721 | 28 | 270 | 0.0 | 1.0 | 0.00 | 0.00 | 0.00 | 18 | 1000.1 |
| 20260506210439 | 28 | 270 | 0.0 | 2.0 | 0.00 | 0.00 | 0.00 | 18 | 1000.1 |
| 20260506210003 | 28 | 270 | 0.0 | 2.0 | 0.00 | 0.00 | 0.00 | 18 | 1000.0 |
| 20260506205939 | 28 | 270 | 0.0 | 2.0 | 0.00 | 0.00 | 0.00 | 18 | 1000.0 |
| 20260506205440 | 28 | 270 | 1.0 | 2.0 | 0.00 | 0.00 | 0.00 | 17 | 1000.1 |
| 20260506205403 | 28 | 270 | 1.0 | 2.0 | 0.00 | 0.00 | 0.00 | 16 | 1000.1 |
| 20260506204940 | 28 | 270 | 0.0 | 1.0 | 0.00 | 0.00 | 0.00 | 14 | 1000.2 |
| 20260506204722 | 28 | 270 | 0.0 | 1.0 | 0.00 | 0.00 | 0.00 | 13 | 1000.1 |
| 20260506204503 | 28 | 270 | 0.0 | 1.0 | 0.00 | 0.00 | 0.00 | 13 | 1000.1 |
| 20260506204440 | 28 | 270 | 0.0 | 1.0 | 0.00 | 0.00 | 0.00 | 12 | 1000.0 |
| 20260506203940 | 28 | 0 | 0.0 | 0.0 | 0.00 | 0.00 | 0.00 | 11 | 1000.0 |
| 20260506203603 | 28 | 0 | 0.0 | 0.0 | 0.00 | 0.00 | 0.00 | 11 | 1000.1 |
| 20260506203440 | 28 | 0 | 0.0 | 0.0 | 0.00 | 0.00 | 0.00 | 11 | 1000.2 |
| 20260506202940 | 29 | 0 | 0.0 | 0.0 | 0.00 | 0.00 | 0.00 | 12 | 1000.2 |
| 20260506202722 | 29 | 0 | 0.0 | 0.0 | 0.00 | 0.00 | 0.00 | 11 | 1000.0 |
| 20260506202704 | 29 | 0 | 0.0 | 0.0 | 0.00 | 0.00 | 0.00 | 11 | 1000.0 |
| 20260506202440 | 29 | 0 | 0.0 | 0.0 | 0.00 | 0.00 | 0.00 | 10 | 1000.0 |
| 20260506201940 | 29 | 270 | 0.0 | 1.0 | 0.00 | 0.00 | 0.00 | 11 | 1000.1 |
| 20260506201803 | 29 | 270 | 0.0 | 1.0 | 0.00 | 0.00 | 0.00 | 11 | 1000.1 |
| 20260506201440 | 29 | 270 | 0.0 | 1.0 | 0.00 | 0.00 | 0.00 | 11 | 1000.0 |
| 20260506200940 | 30 | 270 | 0.0 | 1.0 | 0.00 | 0.00 | 0.00 | 11 | 1000.2 |
| 20260506200903 | 30 | 270 | 0.0 | 1.0 | 0.00 | 0.00 | 0.00 | 11 | 1000.2 |
| 20260506200722 | 30 | 0 | 0.0 | 0.0 | 0.00 | 0.00 | 0.00 | 11 | 1000.0 |
| 20260506200440 | 30 | 0 | 0.0 | 0.0 | 0.00 | 0.00 | 0.00 | 11 | 1000.1 |
| 20260506200003 | 30 | 0 | 0.0 | 0.0 | 0.00 | 0.00 | 0.00 | 11 | 1000.0 |
| 20260506195940 | 30 | 0 | 0.0 | 0.0 | 0.00 | 0.00 | 0.00 | 11 | 1000.0 |
| 20260506195440 | 30 | 0 | 0.0 | 0.0 | 0.00 | 0.00 | 0.00 | 11 | 1000.0 |
| 20260506195403 | 31 | 0 | 0.0 | 0.0 | 0.00 | 0.00 | 0.00 | 11 | 1000.0 |
| 20260506194940 | 31 | 0 | 0.0 | 0.0 | 0.00 | 0.00 | 0.00 | 11 | 999.9 |
| 20260506194722 | 31 | 0 | 0.0 | 0.0 | 0.00 | 0.00 | 0.00 | 11 | 999.9 |
| 20260506194503 | 31 | 0 | 0.0 | 0.0 | 0.00 | 0.00 | 0.00 | 11 | 999.9 |
| 20260506194440 | 31 | 270 | 0.0 | 2.0 | 0.00 | 0.00 | 0.00 | 11 | 999.9 |
| 20260506193940 | 32 | 270 | 0.0 | 2.0 | 0.00 | 0.00 | 0.00 | 11 | 1000.0 |
| 20260506193604 | 32 | 270 | 0.0 | 2.0 | 0.00 | 0.00 | 0.00 | 11 | 999.9 |
| 20260506193440 | 32 | 270 | 0.0 | 2.0 | 0.00 | 0.00 | 0.00 | 11 | 999.9 |
| 20260506192939 | 33 | 270 | 0.0 | 2.0 | 0.00 | 0.00 | 0.00 | 11 | 999.8 |
| 20260506192722 | 33 | 270 | 0.0 | 2.0 | 0.00 | 0.00 | 0.00 | 11 | 999.8 |
| 20260506192703 | 33 | 270 | 0.0 | 2.0 | 0.00 | 0.00 | 0.00 | 11 | 999.8 |
| 20260506192440 | 33 | 270 | 0.0 | 2.0 | 0.00 | 0.00 | 0.00 | 11 | 999.8 |
| 20260506191940 | 34 | 270 | 0.0 | 2.0 | 0.00 | 0.00 | 0.00 | 11 | 999.7 |
| 20260506191803 | 34 | 270 | 0.0 | 2.0 | 0.00 | 0.00 | 0.00 | 11 | 999.7 |
| 20260506191440 | 34 | 270 | 0.0 | 2.0 | 0.00 | 0.00 | 0.00 | 11 | 999.7 |
| 20260506190940 | 34 | 0 | 0.0 | 0.0 | 0.00 | 0.00 | 0.00 | 11 | 999.7 |
| 20260506190903 | 34 | 0 | 0.0 | 0.0 | 0.00 | 0.00 | 0.00 | 11 | 999.7 |
| 20260506190722 | 35 | 270 | 0.0 | 1.0 | 0.00 | 0.00 | 0.00 | 11 | 999.7 |
| 20260506190440 | 35 | 270 | 0.0 | 2.0 | 0.00 | 0.00 | 0.00 | 11 | 999.7 |
| 20260506190003 | 35 | 270 | 0.0 | 2.0 | 0.00 | 0.00 | 0.00 | 11 | 999.6 |
| 20260506185939 | 35 | 270 | 0.0 | 2.0 | 0.00 | 0.00 | 0.00 | 11 | 999.7 |
| 20260506185439 | 35 | 270 | 0.0 | 2.0 | 0.00 | 0.00 | 0.00 | 11 | 999.7 |
| 20260506185403 | 35 | 270 | 0.0 | 2.0 | 0.00 | 0.00 | 0.00 | 11 | 999.7 |
| 20260506184939 | 36 | 270 | 0.0 | 1.0 | 0.00 | 0.00 | 0.00 | 11 | 999.6 |
| 20260506184721 | 36 | 0 | 0.0 | 0.0 | 0.00 | 0.00 | 0.00 | 11 | 999.7 |
| 20260506184504 | 35 | 270 | 0.0 | 1.0 | 0.00 | 0.00 | 0.00 | 11 | 999.6 |
| 20260506184439 | 36 | 270 | 0.0 | 2.0 | 0.00 | 0.00 | 0.00 | 11 | 999.7 |
| 20260506183939 | 35 | 242 | 0.0 | 2.0 | 0.00 | 0.00 | 0.00 | 11 | 999.5 |
| 20260506183603 | 35 | 242 | 0.0 | 2.0 | 0.00 | 0.00 | 0.00 | 11 | 999.6 |
| 20260506183439 | 35 | 228 | 2.0 | 2.0 | 0.00 | 0.00 | 0.00 | 11 | 999.6 |
| 20260506182939 | 35 | 180 | 0.0 | 2.0 | 0.00 | 0.00 | 0.00 | 11 | 999.6 |
| 20260506182721 | 35 | 180 | 0.0 | 2.0 | 0.00 | 0.00 | 0.00 | 11 | 999.6 |
| 20260506182703 | 35 | 180 | 0.0 | 2.0 | 0.00 | 0.00 | 0.00 | 11 | 999.6 |
| 20260506182439 | 35 | 180 | 0.0 | 2.0 | 0.00 | 0.00 | 0.00 | 11 | 999.5 |
| 20260506181939 | 36 | 137 | 0.0 | 2.0 | 0.00 | 0.00 | 0.00 | 11 | 999.5 |
| 20260506181803 | 36 | 122 | 0.0 | 2.0 | 0.00 | 0.00 | 0.00 | 11 | 999.5 |
| 20260506181439 | 36 | 37 | 0.0 | 4.0 | 0.00 | 0.00 | 0.00 | 11 | 999.4 |
| 20260506180939 | 36 | 28 | 0.0 | 7.0 | 0.00 | 0.00 | 0.00 | 11 | 999.4 |
| 20260506180903 | 36 | 28 | 0.0 | 7.0 | 0.00 | 0.00 | 0.00 | 11 | 999.4 |
| 20260506180720 | 36 | 25 | 0.0 | 7.0 | 0.00 | 0.00 | 0.00 | 11 | 999.4 |
| 20260506180438 | 36 | 12 | 3.0 | 8.0 | 0.00 | 0.00 | 0.00 | 11 | 999.4 |
| 20260506180004 | 36 | 7 | 2.0 | 11.0 | 0.00 | 0.00 | 0.00 | 11 | 999.3 |
| 20260506175938 | 36 | 3 | 2.0 | 11.0 | 0.00 | 0.00 | 0.00 | 11 | 999.4 |
| 20260506175438 | 36 | 4 | 4.0 | 11.0 | 0.00 | 0.00 | 0.00 | 11 | 999.3 |
| 20260506175403 | 36 | 4 | 4.0 | 11.0 | 0.00 | 0.00 | 0.00 | 11 | 999.3 |
| 20260506174938 | 37 | 355 | 4.0 | 9.0 | 0.00 | 0.00 | 0.00 | 11 | 999.4 |
| 20260506174720 | 37 | 358 | 3.0 | 9.0 | 0.00 | 0.00 | 0.00 | 11 | 999.3 |
| 20260506174503 | 37 | 344 | 6.0 | 9.0 | 0.00 | 0.00 | 0.00 | 11 | 999.4 |
| 20260506174438 | 37 | 339 | 4.0 | 8.0 | 0.00 | 0.00 | 0.00 | 11 | 999.4 |
| 20260506173938 | 37 | 350 | 4.0 | 11.0 | 0.00 | 0.00 | 0.00 | 11 | 999.3 |
| 20260506173603 | 37 | 348 | 4.0 | 11.0 | 0.00 | 0.00 | 0.00 | 11 | 999.3 |
| 20260506173438 | 38 | 346 | 7.0 | 11.0 | 0.00 | 0.00 | 0.00 | 11 | 999.4 |
| 20260506172938 | 38 | 324 | 3.0 | 7.0 | 0.00 | 0.00 | 0.00 | 11 | 999.2 |
| 20260506172720 | 38 | 310 | 2.0 | 7.0 | 0.00 | 0.00 | 0.00 | 11 | 999.2 |
| 20260506172703 | 38 | 309 | 2.0 | 7.0 | 0.00 | 0.00 | 0.00 | 11 | 999.2 |
| 20260506172438 | 38 | 290 | 4.0 | 7.0 | 0.00 | 0.00 | 0.00 | 11 | 999.3 |
| 20260506171938 | 38 | 253 | 2.0 | 4.0 | 0.00 | 0.00 | 0.00 | 11 | 999.2 |
| 20260506171803 | 38 | 251 | 1.0 | 4.0 | 0.00 | 0.00 | 0.00 | 11 | 999.1 |
| 20260506171438 | 37 | 208 | 1.0 | 10.0 | 0.00 | 0.00 | 0.00 | 11 | 999.0 |
| 20260506170938 | 37 | 205 | 0.0 | 10.0 | 0.00 | 0.00 | 0.00 | 11 | 998.9 |
| 20260506170903 | 37 | 205 | 0.0 | 10.0 | 0.00 | 0.00 | 0.00 | 11 | 998.9 |
| 20260506170721 | 36 | 207 | 1.0 | 10.0 | 0.00 | 0.00 | 0.00 | 11 | 998.9 |
| 20260506170439 | 36 | 207 | 7.0 | 10.0 | 0.00 | 0.00 | 0.00 | 11 | 998.9 |
| 20260506170003 | 36 | 227 | 7.0 | 12.0 | 0.00 | 0.00 | 0.00 | 11 | 998.9 |
| 20260506165939 | 36 | 224 | 4.0 | 12.0 | 0.00 | 0.00 | 0.00 | 11 | 999.1 |
| 20260506165439 | 36 | 266 | 4.0 | 12.0 | 0.00 | 0.00 | 0.00 | 11 | 999.2 |
| 20260506165403 | 36 | 266 | 4.0 | 12.0 | 0.00 | 0.00 | 0.00 | 11 | 999.2 |
| 20260506164939 | 37 | 305 | 6.0 | 11.0 | 0.00 | 0.00 | 0.00 | 11 | 999.0 |
| 20260506164721 | 38 | 306 | 4.0 | 11.0 | 0.00 | 0.00 | 0.00 | 11 | 999.0 |
| 20260506164503 | 38 | 304 | 4.0 | 11.0 | 0.00 | 0.00 | 0.00 | 11 | 999.0 |
| 20260506164439 | 38 | 306 | 1.0 | 11.0 | 0.00 | 0.00 | 0.00 | 11 | 999.0 |
| 20260506163939 | 38 | 276 | 4.0 | 11.0 | 0.00 | 0.00 | 0.00 | 11 | 999.0 |
| 20260506163603 | 38 | 285 | 4.0 | 9.0 | 0.00 | 0.00 | 0.00 | 11 | 999.0 |
| 20260506163439 | 38 | 284 | 4.0 | 9.0 | 0.00 | 0.00 | 0.00 | 11 | 998.9 |
| 20260506162939 | 38 | 294 | 2.0 | 8.0 | 0.00 | 0.00 | 0.00 | 11 | 998.9 |
| 20260506162721 | 38 | 297 | 2.0 | 8.0 | 0.00 | 0.00 | 0.00 | 11 | 998.7 |
| 20260506162703 | 38 | 296 | 2.0 | 8.0 | 0.00 | 0.00 | 0.00 | 11 | 998.7 |
| 20260506162439 | 38 | 275 | 2.0 | 8.0 | 0.00 | 0.00 | 0.00 | 11 | 998.8 |
| 20260506161939 | 39 | 265 | 3.0 | 8.0 | 0.00 | 0.00 | 0.00 | 11 | 998.7 |
| 20260506161803 | 39 | 261 | 3.0 | 8.0 | 0.00 | 0.00 | 0.00 | 11 | 998.7 |
| 20260506161439 | 38 | 266 | 4.0 | 8.0 | 0.00 | 0.00 | 0.00 | 11 | 998.8 |
| 20260506160939 | 38 | 229 | 3.0 | 8.0 | 0.00 | 0.00 | 0.00 | 11 | 998.8 |
| 20260506160903 | 38 | 229 | 3.0 | 8.0 | 0.00 | 0.00 | 0.00 | 11 | 998.8 |
| 20260506160721 | 38 | 237 | 4.0 | 8.0 | 0.00 | 0.00 | 0.00 | 11 | 998.8 |
| 20260506160439 | 37 | 229 | 2.0 | 10.0 | 0.00 | 0.00 | 0.00 | 11 | 998.8 |
| 20260506160003 | 37 | 242 | 3.0 | 10.0 | 0.00 | 0.00 | 0.00 | 11 | 998.8 |
| 20260506155939 | 37 | 247 | 3.0 | 10.0 | 0.00 | 0.00 | 0.00 | 11 | 998.8 |
| 20260506155439 | 37 | 251 | 1.0 | 15.0 | 0.00 | 0.00 | 0.00 | 11 | 998.7 |
| 20260506155403 | 37 | 251 | 1.0 | 15.0 | 0.00 | 0.00 | 0.00 | 11 | 998.7 |
| 20260506154939 | 38 | 269 | 4.0 | 15.0 | 0.00 | 0.00 | 0.00 | 11 | 998.8 |
| 20260506154721 | 38 | 271 | 7.0 | 15.0 | 0.00 | 0.00 | 0.00 | 11 | 998.7 |
| 20260506154503 | 38 | 273 | 4.0 | 12.0 | 0.00 | 0.00 | 0.00 | 11 | 998.8 |
| 20260506154439 | 39 | 275 | 5.0 | 12.0 | 0.00 | 0.00 | 0.00 | 11 | 998.5 |
| 20260506153939 | 39 | 297 | 3.0 | 11.0 | 0.00 | 0.00 | 0.00 | 11 | 998.5 |
| 20260506153603 | 39 | 321 | 4.0 | 7.0 | 0.00 | 0.00 | 0.00 | 11 | 998.4 |
| 20260506153439 | 39 | 328 | 2.0 | 6.0 | 0.00 | 0.00 | 0.00 | 11 | 998.3 |
| 20260506152939 | 39 | 324 | 2.0 | 8.0 | 0.00 | 0.00 | 0.00 | 11 | 998.4 |
| 20260506152721 | 39 | 329 | 2.0 | 8.0 | 0.00 | 0.00 | 0.00 | 11 | 998.4 |
| 20260506152703 | 39 | 331 | 2.0 | 8.0 | 0.00 | 0.00 | 0.00 | 11 | 998.4 |
| 20260506152439 | 39 | 341 | 2.0 | 8.0 | 0.00 | 0.00 | 0.00 | 11 | 998.4 |
| 20260506151940 | 40 | 317 | 3.0 | 6.0 | 0.00 | 0.00 | 0.00 | 11 | 998.3 |
| 20260506151803 | 40 | 323 | 3.0 | 6.0 | 0.00 | 0.00 | 0.00 | 11 | 998.3 |
| 20260506151440 | 40 | 285 | 4.0 | 6.0 | 0.00 | 0.00 | 0.00 | 11 | 998.3 |
| 20260506150940 | 40 | 238 | 2.0 | 7.0 | 0.00 | 0.00 | 0.00 | 11 | 998.4 |
| 20260506150903 | 40 | 238 | 2.0 | 7.0 | 0.00 | 0.00 | 0.00 | 11 | 998.4 |
| 20260506150722 | 40 | 239 | 2.0 | 7.0 | 0.00 | 0.00 | 0.00 | 11 | 998.4 |
| 20260506150440 | 39 | 240 | 2.0 | 7.0 | 0.00 | 0.00 | 0.00 | 11 | 998.4 |
| 20260506150003 | 39 | 295 | 1.0 | 7.0 | 0.00 | 0.00 | 0.00 | 11 | 998.3 |
| 20260506145940 | 39 | 296 | 2.0 | 7.0 | 0.00 | 0.00 | 0.00 | 11 | 998.4 |
| 20260506145440 | 39 | 290 | 2.0 | 7.0 | 0.00 | 0.00 | 0.00 | 11 | 998.4 |
| 20260506145403 | 39 | 290 | 2.0 | 7.0 | 0.00 | 0.00 | 0.00 | 11 | 998.4 |
| 20260506144824 | 39 | 282 | 1.0 | 7.0 | 0.00 | 0.00 | 0.00 | 11 | 998.3 |
| 20260506144722 | 38 | 292 | 2.0 | 7.0 | 0.00 | 0.00 | 0.00 | 11 | 998.4 |
| 20260506144503 | 38 | 300 | 4.0 | 7.0 | 0.00 | 0.00 | 0.00 | 11 | 998.4 |
| 20260506144324 | 38 | 308 | 2.0 | 8.0 | 0.00 | 0.00 | 0.00 | 11 | 998.3 |
| 20260506143824 | 38 | 321 | 4.0 | 9.0 | 0.00 | 0.00 | 0.00 | 11 | 998.3 |
| 20260506143603 | 38 | 315 | 2.0 | 9.0 | 0.00 | 0.00 | 0.00 | 11 | 998.4 |
| 20260506143324 | 38 | 309 | 3.0 | 11.0 | 0.00 | 0.00 | 0.00 | 11 | 998.4 |
| 20260506142824 | 37 | 325 | 4.0 | 14.0 | 0.00 | 0.00 | 0.00 | 11 | 998.5 |
| 20260506142722 | 37 | 323 | 4.0 | 15.0 | 0.00 | 0.00 | 0.00 | 11 | 998.4 |
| 20260506142703 | 37 | 323 | 4.0 | 15.0 | 0.00 | 0.00 | 0.00 | 11 | 998.4 |
| 20260506142324 | 38 | 326 | 6.0 | 15.0 | 0.00 | 0.00 | 0.00 | 11 | 998.4 |
| 20260506141824 | 39 | 331 | 6.0 | 15.0 | 0.00 | 0.00 | 0.00 | 11 | 998.3 |
| 20260506141803 | 39 | 331 | 6.0 | 15.0 | 0.00 | 0.00 | 0.00 | 11 | 998.3 |
| 20260506141324 | 41 | 336 | 3.0 | 14.0 | 0.00 | 0.00 | 0.00 | 11 | 998.0 |
| 20260506140903 | 42 | 322 | 6.0 | 11.0 | 0.00 | 0.00 | 0.00 | 11 | 998.0 |
| 20260506140824 | 42 | 317 | 4.0 | 9.0 | 0.00 | 0.00 | 0.00 | 11 | 998.0 |
| 20260506140722 | 42 | 311 | 6.0 | 9.0 | 0.00 | 0.00 | 0.00 | 11 | 998.0 |
| 20260506140324 | 40 | 323 | 6.0 | 9.0 | 0.00 | 0.00 | 0.00 | 11 | 997.9 |
| 20260506140003 | 40 | 336 | 6.0 | 11.0 | 0.00 | 0.00 | 0.00 | 11 | 998.0 |
| 20260506135824 | 40 | 345 | 2.0 | 11.0 | 0.00 | 0.00 | 0.00 | 11 | 998.1 |
| 20260506135403 | 40 | 353 | 4.0 | 11.0 | 0.00 | 0.00 | 0.00 | 11 | 998.0 |
| 20260506135324 | 41 | 353 | 5.0 | 11.0 | 0.00 | 0.00 | 0.00 | 11 | 998.0 |
| 20260506134824 | 41 | 354 | 6.0 | 13.0 | 0.00 | 0.00 | 0.00 | 11 | 998.0 |
| 20260506134722 | 41 | 354 | 5.0 | 13.0 | 0.00 | 0.00 | 0.00 | 11 | 997.9 |
| 20260506134503 | 40 | 348 | 5.0 | 13.0 | 0.00 | 0.00 | 0.00 | 11 | 997.9 |
| 20260506134324 | 40 | 346 | 5.0 | 13.0 | 0.00 | 0.00 | 0.00 | 11 | 997.9 |
| 20260506133823 | 40 | 325 | 7.0 | 13.0 | 0.00 | 0.00 | 0.00 | 11 | 997.9 |
| 20260506133603 | 41 | 311 | 8.0 | 11.0 | 0.00 | 0.00 | 0.00 | 11 | 997.9 |
| 20260506133323 | 41 | 289 | 6.0 | 11.0 | 0.00 | 0.00 | 0.00 | 11 | 997.9 |
| 20260506132823 | 41 | 290 | 2.0 | 13.0 | 0.00 | 0.00 | 0.00 | 11 | 997.9 |
| 20260506132721 | 41 | 289 | 4.0 | 13.0 | 0.00 | 0.00 | 0.00 | 11 | 997.7 |
| 20260506132703 | 41 | 290 | 4.0 | 13.0 | 0.00 | 0.00 | 0.00 | 11 | 997.7 |
| 20260506132323 | 41 | 287 | 3.0 | 13.0 | 0.00 | 0.00 | 0.00 | 11 | 997.8 |
| 20260506131823 | 40 | 287 | 1.0 | 7.0 | 0.00 | 0.00 | 0.00 | 11 | 997.6 |
| 20260506131803 | 40 | 287 | 1.0 | 7.0 | 0.00 | 0.00 | 0.00 | 11 | 997.6 |
| 20260506131426 | 40 | 278 | 2.0 | 11.0 | 0.00 | 0.00 | 0.00 | 11 | 997.8 |
| 20260506130926 | 41 | 246 | 4.0 | 11.0 | 0.00 | 0.00 | 0.00 | 11 | 997.8 |
| 20260506130903 | 41 | 246 | 4.0 | 11.0 | 0.00 | 0.00 | 0.00 | 11 | 997.8 |
| 20260506130720 | 41 | 243 | 4.0 | 11.0 | 0.00 | 0.00 | 0.00 | 11 | 997.8 |
| 20260506130426 | 41 | 221 | 2.0 | 4.0 | 0.00 | 0.00 | 0.00 | 11 | 997.7 |
| 20260506130003 | 41 | 211 | 2.0 | 4.0 | 0.00 | 0.00 | 0.00 | 11 | 997.7 |
| 20260506125926 | 41 | 209 | 0.0 | 4.0 | 0.00 | 0.00 | 0.00 | 11 | 997.9 |
| 20260506125426 | 39 | 276 | 2.0 | 8.0 | 0.00 | 0.00 | 0.00 | 11 | 997.7 |
| 20260506125403 | 39 | 276 | 2.0 | 8.0 | 0.00 | 0.00 | 0.00 | 11 | 997.7 |
| 20260506124926 | 39 | 283 | 2.0 | 8.0 | 0.00 | 0.00 | 0.00 | 11 | 997.8 |
| 20260506124720 | 40 | 268 | 4.0 | 8.0 | 0.00 | 0.00 | 0.00 | 11 | 997.8 |
| 20260506124504 | 41 | 261 | 4.0 | 8.0 | 0.00 | 0.00 | 0.00 | 11 | 997.9 |
| 20260506124426 | 41 | 255 | 4.0 | 8.0 | 0.00 | 0.00 | 0.00 | 11 | 997.8 |
| 20260506123926 | 41 | 274 | 3.0 | 9.0 | 0.00 | 0.00 | 0.00 | 11 | 997.7 |
| 20260506123603 | 42 | 283 | 3.0 | 9.0 | 0.00 | 0.00 | 0.00 | 11 | 997.6 |
| 20260506123426 | 42 | 268 | 4.0 | 9.0 | 0.00 | 0.00 | 0.00 | 11 | 997.6 |
| 20260506122926 | 41 | 221 | 2.0 | 9.0 | 0.00 | 0.00 | 0.00 | 11 | 997.5 |
| 20260506122720 | 41 | 217 | 2.0 | 9.0 | 0.00 | 0.00 | 0.00 | 11 | 997.4 |
| 20260506122703 | 41 | 217 | 2.0 | 9.0 | 0.00 | 0.00 | 0.00 | 11 | 997.4 |
| 20260506122426 | 42 | 205 | 3.0 | 9.0 | 0.00 | 0.00 | 0.00 | 11 | 997.5 |
| 20260506121926 | 41 | 206 | 4.0 | 11.0 | 0.00 | 0.00 | 0.00 | 11 | 997.4 |
| 20260506121803 | 40 | 207 | 3.0 | 11.0 | 0.00 | 0.00 | 0.00 | 11 | 997.4 |
| 20260506121426 | 40 | 236 | 2.0 | 12.0 | 0.00 | 0.00 | 0.00 | 11 | 997.4 |
| 20260506120926 | 40 | 301 | 4.0 | 15.0 | 0.00 | 0.00 | 0.00 | 11 | 997.5 |
| 20260506120903 | 40 | 301 | 4.0 | 15.0 | 0.00 | 0.00 | 0.00 | 11 | 997.5 |
| 20260506120720 | 41 | 314 | 4.0 | 15.0 | 0.00 | 0.00 | 0.00 | 11 | 997.4 |
| 20260506120426 | 42 | 317 | 8.0 | 15.0 | 0.00 | 0.00 | 0.00 | 11 | 997.4 |
| 20260506120003 | 42 | 292 | 8.0 | 15.0 | 0.00 | 0.00 | 0.00 | 11 | 997.3 |
| 20260506115925 | 42 | 282 | 9.0 | 15.0 | 0.00 | 0.00 | 0.00 | 11 | 997.3 |
| 20260506115426 | 43 | 237 | 2.0 | 11.0 | 0.00 | 0.00 | 0.00 | 11 | 997.0 |
| 20260506115403 | 43 | 237 | 2.0 | 11.0 | 0.00 | 0.00 | 0.00 | 11 | 997.0 |
| 20260506114926 | 42 | 223 | 2.0 | 11.0 | 0.00 | 0.00 | 0.00 | 11 | 997.0 |
| 20260506114721 | 42 | 215 | 3.0 | 11.0 | 0.00 | 0.00 | 0.00 | 11 | 997.1 |
| 20260506114503 | 42 | 215 | 7.0 | 11.0 | 0.00 | 0.00 | 0.00 | 11 | 996.9 |
| 20260506114427 | 43 | 209 | 6.0 | 11.0 | 0.00 | 0.00 | 0.00 | 11 | 997.1 |